Miscellaneous Local Product
Issued by NWS North Platte, NE

Home | Current Version | Previous Version | Text Only | Print | Product List | Glossary On
Versions: 1 2 3 4 5 6 7 8 9 10 11 12 13 14 15 16 17 18 19 20 21 22 23 24 25 26 27 28 29 30 31 32 33 34 35 36 37 38 39 40 41 42 43 44 45 46 47 48 49 50
000
AXUS43 KLBF 301010
MISLBF


WESTERN AND NORTH CENTRAL NEBRASKA HOURLY WEATHER ROUNDUP
NATIONAL WEATHER SERVICE NORTH PLATTE NE
400 AM CST FRI JAN 30 2015

***STATIONS NOT REPORTING VARIABLES SUCH AS SKY/WEATHER OR
PRESSURE ARE PROVIDED BY THE NEBRASKA DEPARTMENT OF
ROADS...RAWS...AND APRS NETWORKS...AND ARE NOT UNDER
NATIONAL WEATHER SERVICE QUALITY CONTROL***

...OBSERVATIONS IN AND NEAR THE EASTERN PANHANDLE OF NEBRASKA...

CITY           SKY/WX    TMP DP  RH WIND       PRES   REMARKS
PINE RIDGE     PTCLDY    32  18  56 SW9       30.27F WCI  24
CHADRON        MOCLDY    36  17  46 SW13      30.25F WCI  27
ALLIANCE       MOCLDY    25  20  81 SE6       30.28F WCI  18
SIDNEY         CLOUDY    29  19  66 S7        30.29F WCI  22
WHITECLAY        N/A     30  16  56 S12         N/A  WCI  20
CRESCENT LAKE    N/A     25  18  73 SE7         N/A  WCI  17
LISCO            N/A     30  19  64 E10         N/A  WCI  21
LEWELLEN         N/A     26  21  80 E6          N/A  WCI  19
$$

...OBSERVATIONS IN NORTH CENTRAL NEBRASKA...

CITY           SKY/WX    TMP DP  RH WIND       PRES   REMARKS
VALENTINE      CLEAR     19  15  84 E5        30.35F WCI  12
THEDFORD       MOCLDY    28  19  67 CALM      30.37F
AINSWORTH      CLEAR     22  18  85 S6        30.38S WCI  14
O`NEILL        CLEAR     20  19  94 S7        30.45F WCI  11
ORD            CLEAR     21  17  84 S5        30.45F WCI  15
BROKEN BOW     CLEAR     20  15  81 CALM      30.41F
BROWNLEE         N/A     24  17  72 S8          N/A  WCI  16
VALENTINE NWR    N/A     21  18  86 S5          N/A  WCI  15
SPRINGVIEW       N/A     18  16  90 CALM        N/A
HALSEY           N/A     26  16  64 S5          N/A  WCI  20
BREWSTER         N/A     20  19  93 CALM        N/A
ROSE             N/A     27  27  99 E7          N/A  WCI  19
NEWPORT          N/A     26  25  97 S5          N/A  WCI  20
SARGENT          N/A     20  18  90 E3          N/A
COMSTOCK         N/A     27  25  89 S7          N/A  WCI  20
CHAMBERS         N/A     17  12  82 S3          N/A
EWING            N/A     19  17  93 S3          N/A
$$

...OBSERVATIONS IN SOUTHWEST NEBRASKA AND FAR NORTHEAST COLORADO...

CITY           SKY/WX    TMP DP  RH WIND       PRES   REMARKS
WRAY           FAIR      32  24  72 S8        30.36F WCI  25
IMPERIAL       CLOUDY    28  21  75 SE7       30.38F WCI  21
OGALLALA       MOCLDY    24  20  83 CALM      30.36F
NORTH PLATTE   MOCLDY    19  15  84 E3        30.41F
MCCOOK         MOCLDY    20  15  81 CALM      30.43F
LEXINGTON      PTCLDY    19  16  86 SE3       30.44S
BRADY            N/A     20  15  81 CALM        N/A
GOTHENBURG       N/A     23  16  74 CALM        N/A
CALLAWAY         N/A     21  17  85 SE6         N/A  WCI  13
$$

...NORTH PLATTE AREA...

CITY           SKY/WX    TMP DP  RH WIND       PRES   REMARKS
AIRPORT        MOCLDY    19  15  84 E3        30.41F
DOWNTOWN         N/A     20  17  88 CALM        N/A
$$

...SOME WEATHER OBSERVATIONS FROM AROUND THE REGION...

CITY           SKY/WX    TMP DP  RH WIND       PRES   REMARKS
DENVER         CLOUDY    36  23  59 W3        30.23F
LARAMIE        CLOUDY    25  22  88 W3        30.23F
CHEYENNE       CLOUDY    26  20  77 W3        30.22F
SCOTTSBLUFF    MOCLDY    28  21  75 E9        30.27F WCI  19
RAPID CITY     PTCLDY    23  14  68 E5        30.23F WCI  17
PIERRE         CLEAR     21  18  88 E10       30.36F WCI  10
WINNER         FAIR      23  19  85 SE10      30.39F WCI  12
SIOUX FALLS    CLOUDY    21  16  81 S5        30.49F WCI  15
OMAHA          CLEAR     22  19  89 NW3       30.55S
GRAND ISLAND     N/A     19  17  92 SE3       30.49F
KANSAS CITY    CLEAR     23  20  88 N8        30.54R WCI  14
WICHITA        MOCLDY    28  22  78 NE5       30.51F WCI  23
HAYS           PTCLDY    19   9  63 CALM      30.47F
LIBERAL        CLOUDY    34  21  60 SW6       30.47F WCI  29
GOODLAND       MOCLDY    29  21  72 S12       30.39F WCI  19
$$



USA.gov is the U.S. government's official web portal to all federal, state and local government web resources and services.